Temp
83 95 96 90 74 74 67 68 77 72 73 79 81 78 76 78 73 65 82 86 86 85 81 79 74 75 75 76 75 76 76 76 76 77 76 76 77 76 76 76 76 76 76 76 75 75 75 74 74
93 92 92 85 70 65 68 75 72 76 78 81 79 78 77 73 79 76 79 84 87 86 81 80 72 74 75 75 75 75 76 76 76 76 76 76 77 77 76 76 75 76 76 76 75 75 74 74 73
90 90 83 76 72 68 68 75 77 76 79 79 77 80 79 75 79 80 85 85 87 86 81 78 72 74 75 75 75 75 75 76 76 76 76 76 76 76 76 76 75 75 76 76 76 75 74 73 73
89 87 85 71 68 72 74 78 78 75 76 78 79 75 79 80 81 84 85 86 86 85 83 73 73 74 74 74 75 75 75 75 75 75 75 75 76 75 75 75 75 75 75 75 75 74 73 73 72
88 85 72 68 70 73 76 80 79 75 77 77 78 74 75 79 83 84 84 86 84 85 81 78 72 73 74 74 74 74 75 74 74 74 74 74 75 74 74 74 74 74 74 75 73 73 72 72 71
77 80 67 64 69 73 76 79 79 78 78 77 76 77 76 81 81 82 85 85 86 84 79 78 69 70 72 73 73 73 74 74 74 73 73 73 74 73 73 74 73 73 73 73 72 71 71 70 70
73 71 68 70 68 69 73 79 77 78 77 76 80 75 77 78 82 83 84 86 86 82 79 80 78 73 68 70 71 71 72 72 72 72 72 71 71 72 72 72 72 73 72 71 70 70 70 69 69
78 75 67 71 68 68 76 77 80 79 77 80 82 75 74 80 81 83 84 82 82 81 80 81 79 78 77 75 67 69 69 70 70 69 68 67 67 68 68 68 71 71 71 70 70 69 68 68 67
77 68 65 68 70 71 76 75 78 80 78 79 79 80 80 82 78 77 77 76 75 78 78 81 79 80 79 78 72 66 66 66 66 66 64 65 75 75 72 67 69 69 69 68 68 67 66 65 64
73 69 71 78 78 75 75 77 76 75 76 76 76 76 79 77 69 68 70 71 69 71 75 77 79 79 79 80 75 76 75 75 75 74 73 78 77 76 74 65 63 64 64 65 65 64 65 66 72
73 69 73 73 76 79 76 74 80 77 73 80 77 77 76 73 68 68 69 70 69 71 74 75 76 78 77 79 77 78 76 77 76 75 75 76 76 73 73 70 68 67 64 69 67 67 72 72 72
65 72 75 72 72 73 73 78 73 78 78 80 83 84 77 74 71 73 74 75 72 71 73 74 74 74 75 78 78 78 77 77 76 75 74 73 73 73 73 72 71 69 70 69 70 69 69 69 70
69 69 71 71 70 72 74 72 75 75 81 79 79 79 77 77 76 78 79 79 78 71 72 72 74 73 73 75 77 77 77 76 76 75 74 74 74 72 73 73 72 71 70 69 69 68 68 67 68
73 70 71 69 70 69 70 71 70 78 82 78 75 77 79 79 79 79 79 79 79 77 73 73 72 73 73 73 76 76 77 76 76 75 74 74 74 73 72 71 71 70 70 70 70 68 67 67 66
70 64 67 68 69 66 71 65 65 79 76 77 76 78 79 80 81 80 81 80 81 80 79 76 74 73 72 72 74 75 76 77 75 75 74 73 74 73 72 70 70 69 70 69 69 67 67 66 65
65 67 60 68 67 67 66 62 72 79 74 75 79 80 78 78 80 82 83 82 82 81 80 79 78 72 72 71 72 73 75 76 76 75 73 72 72 73 71 70 69 70 68 67 66 65 63 63 63
61 58 59 59 67 65 64 65 75 73 73 74 77 79 79 78 79 81 82 83 82 83 81 80 79 75 72 71 71 71 73 73 75 75 74 72 70 69 69 70 70 69 67 66 66 65 65 63 61
54 56 59 59 60 60 62 63 70 71 71 73 76 77 77 77 79 82 82 82 83 83 82 81 80 78 76 71 70 69 69 69 74 75 74 73 71 70 68 64 61 61 60 61 63 61 60 62 62
66 61 60 63 60 60 61 62 68 74 72 70 73 75 77 78 83 83 82 81 80 80 80 80 79 78 77 69 67 66 64 65 66 71 74 74 73 70 68 67 62 59 59 62 60 57 55 56 61
61 59 59 58 59 57 61 58 65 69 70 71 74 76 78 79 82 81 80 78 78 78 78 79 79 79 77 72 69 69 69 66 68 69 68 73 73 72 69 66 61 59 60 61 57 56 53 58 60
59 58 59 58 57 58 57 57 61 68 70 73 74 76 78 79 78 80 76 76 76 74 75 76 77 79 79 73 70 67 66 64 63 65 65 67 70 70 68 64 61 61 60 61 58 56 56 50 51
53 62 62 56 55 52 58 51 63 66 66 66 68 70 74 76 74 74 73 73 74 73 73 73 75 76 77 77 69 66 64 63 64 64 65 64 66 66 64 63 64 63 60 59 58 56 54 51 47
58 61 59 58 55 54 55 51 60 62 62 66 69 71 73 73 71 70 67 65 66 66 65 67 70 72 73 73 73 67 65 67 70 65 62 63 64 65 65 64 61 59 57 56 55 52 52 51 48
59 57 56 56 56 43 54 52 56 63 63 70 71 69 66 65 65 63 62 61 63 63 62 63 65 68 69 72 73 70 66 66 64 63 62 62 61 61 61 60 59 59 57 55 54 53 50 48 48
59 54 44 41 41 41 49 49 57 67 68 66 66 66 66 65 64 63 62 62 61 60 60 62 63 64 69 69 71 71 69 68 65 65 64 61 57 56 59 58 57 57 56 55 52 49 48 48 47
53 56 46 33 37 44 44 42 55 67 69 64 66 64 64 64 63 62 60 60 60 59 58 62 64 64 66 67 68 71 67 65 64 62 62 59 59 58 57 54 54 54 53 52 51 50 48 47 47
52 49 61 43 32 40 48 53 61 62 62 63 63 61 61 63 63 62 61 60 60 59 58 58 60 61 64 66 67 67 63 59 58 58 58 57 56 52 53 52 51 51 50 50 50 48 47 46 45
56 61 45 48 33 34 47 49 53 55 61 64 62 61 63 61 60 60 59 59 58 59 59 59 58 57 58 59 60 58 57 58 57 55 53 53 51 50 50 52 52 50 49 48 48 46 45 44 44
50 51 53 54 50 39 39 49 65 65 65 65 64 62 63 60 60 59 58 57 57 57 58 58 57 55 53 52 53 52 51 51 52 52 51 51 50 52 53 52 50 50 50 49 47 46 44 43 42
57 54 54 45 41 47 44 48 60 61 64 65 65 60 60 60 59 59 57 56 56 56 57 57 57 56 55 53 52 50 50 51 51 52 54 53 55 54 53 52 50 50 48 48 46 43 43 42 39
MSLP
1012.23 1011.33 1010.86 1010.24 1009.54 1008.73 1008.62 1009.62 1009.98 1010.72 1010.99 1011.69 1011.79 1011.96 1012.29 1012.79 1013.24 1014.79 1015.97 1016.22 1016.63 1017.06 1018.49 1019.14 1019.52 1019.77 1019.94 1020.03 1020.14 1020.23 1020.32 1020.51 1020.66 1020.70 1020.70 1020.73 1020.66 1020.67 1020.72 1020.75 1020.74 1020.80 1020.83 1020.86 1020.94 1021.01 1021.05 1021.18 1021.19
1011.63 1011.33 1010.76 1009.68 1008.96 1007.98 1008.48 1009.52 1010.01 1010.61 1011.33 1011.85 1012.39 1012.51 1012.55 1013.26 1014.33 1015.51 1015.92 1016.58 1016.86 1017.24 1018.47 1019.15 1019.85 1020.02 1020.17 1020.28 1020.40 1020.48 1020.61 1020.73 1020.88 1020.99 1021.09 1021.14 1021.08 1021.04 1021.08 1021.15 1021.21 1021.26 1021.27 1021.44 1021.50 1021.53 1021.64 1021.78 1021.86
1011.94 1011.46 1010.30 1009.39 1008.64 1007.70 1008.24 1009.54 1010.09 1011.41 1011.91 1012.03 1012.25 1012.90 1013.09 1013.77 1014.84 1015.33 1015.71 1016.38 1016.85 1017.48 1018.62 1019.51 1020.04 1020.22 1020.35 1020.50 1020.64 1020.78 1020.92 1021.04 1021.18 1021.31 1021.43 1021.47 1021.47 1021.41 1021.51 1021.57 1021.58 1021.63 1021.69 1021.80 1021.94 1022.01 1022.26 1022.33 1022.41
1011.47 1010.98 1010.46 1009.44 1008.52 1008.95 1008.99 1009.66 1010.64 1011.65 1012.32 1012.51 1012.45 1012.71 1014.11 1015.14 1015.04 1015.42 1016.36 1016.61 1016.97 1017.55 1018.60 1019.91 1020.24 1020.46 1020.64 1020.77 1020.86 1020.95 1021.14 1021.34 1021.54 1021.72 1021.80 1021.90 1021.85 1021.90 1021.92 1022.02 1022.07 1022.15 1022.22 1022.23 1022.43 1022.63 1022.76 1022.87 1022.88
1011.52 1010.26 1009.62 1009.24 1008.84 1009.72 1010.26 1010.25 1010.94 1011.46 1011.91 1012.31 1012.69 1012.97 1013.88 1015.21 1015.69 1015.97 1016.43 1016.78 1017.19 1017.70 1018.84 1019.87 1020.39 1020.57 1020.79 1021.00 1021.12 1021.18 1021.29 1021.55 1021.80 1022.05 1022.19 1022.29 1022.27 1022.32 1022.41 1022.46 1022.51 1022.66 1022.80 1022.83 1023.05 1023.21 1023.34 1023.39 1023.43
1011.13 1010.31 1009.41 1009.09 1009.26 1010.14 1010.60 1010.97 1011.10 1011.39 1011.86 1012.42 1012.83 1012.99 1014.10 1015.43 1015.78 1016.27 1016.56 1016.81 1017.24 1017.95 1019.15 1019.93 1020.56 1020.76 1021.00 1021.21 1021.38 1021.51 1021.66 1021.87 1022.08 1022.31 1022.47 1022.61 1022.69 1022.80 1022.87 1022.85 1022.95 1023.11 1023.23 1023.43 1023.63 1023.76 1023.85 1023.90 1023.94
1010.99 1010.26 1009.18 1008.97 1009.55 1010.29 1010.78 1011.31 1011.29 1011.46 1011.97 1012.37 1012.88 1012.84 1014.34 1015.39 1015.86 1016.38 1016.76 1016.99 1017.33 1018.18 1019.09 1019.71 1020.43 1020.88 1021.18 1021.41 1021.64 1021.81 1021.98 1022.19 1022.41 1022.61 1022.77 1022.95 1023.10 1023.23 1023.31 1023.34 1023.43 1023.61 1023.76 1024.02 1024.24 1024.30 1024.36 1024.42 1024.50
1011.18 1010.35 1009.69 1009.36 1009.64 1010.05 1011.03 1011.50 1011.62 1011.65 1011.97 1012.98 1013.08 1012.84 1013.67 1014.93 1016.19 1016.56 1016.93 1017.30 1017.82 1018.35 1019.00 1019.33 1020.02 1020.72 1021.04 1021.45 1021.79 1022.00 1022.26 1022.47 1022.73 1022.93 1023.15 1023.32 1023.46 1023.60 1023.71 1023.79 1023.93 1024.08 1024.24 1024.49 1024.72 1024.81 1024.91 1024.98 1025.04
1011.76 1010.45 1009.54 1009.54 1009.53 1010.23 1011.23 1011.44 1012.10 1012.43 1012.37 1012.87 1013.38 1013.68 1014.54 1015.27 1016.64 1016.99 1017.35 1017.85 1018.41 1018.71 1018.95 1019.06 1019.74 1020.20 1020.66 1021.20 1021.90 1022.29 1022.57 1022.87 1023.04 1023.28 1023.47 1023.47 1023.27 1023.48 1023.82 1024.16 1024.49 1024.63 1024.82 1025.06 1025.29 1025.43 1025.57 1025.55 1025.59
1011.28 1010.18 1009.31 1009.42 1009.70 1010.15 1011.04 1011.35 1011.88 1012.29 1012.31 1012.74 1013.53 1014.67 1015.09 1016.10 1017.24 1017.57 1017.81 1018.10 1018.80 1019.18 1019.14 1019.29 1019.57 1019.95 1020.40 1020.83 1021.78 1021.94 1022.53 1022.73 1022.80 1023.09 1023.33 1022.91 1023.10 1023.39 1023.71 1024.58 1024.95 1025.26 1025.45 1025.68 1025.86 1025.95 1025.79 1025.58 1025.33
1011.11 1010.44 1010.43 1010.73 1010.67 1010.58 1011.19 1011.69 1011.81 1011.68 1011.88 1011.84 1012.56 1013.74 1014.99 1016.07 1017.05 1017.53 1017.91 1018.32 1018.81 1019.19 1019.30 1019.67 1019.61 1019.91 1020.28 1020.64 1021.28 1021.44 1022.03 1022.21 1022.53 1022.98 1023.14 1023.11 1023.22 1023.69 1023.93 1024.61 1024.96 1025.29 1025.53 1025.58 1025.82 1025.83 1025.39 1025.45 1025.39
1011.49 1011.17 1010.80 1011.37 1011.54 1011.49 1011.65 1011.77 1011.95 1011.71 1011.78 1012.28 1012.49 1012.95 1014.41 1015.35 1016.18 1016.63 1017.14 1017.72 1018.45 1018.91 1019.13 1019.67 1019.95 1020.03 1020.22 1020.47 1020.95 1021.12 1021.54 1021.86 1022.24 1022.74 1023.20 1023.46 1023.57 1023.81 1023.85 1024.23 1024.52 1025.00 1025.07 1025.32 1025.48 1025.63 1025.82 1025.89 1025.88
1011.50 1011.72 1011.84 1011.99 1012.18 1012.23 1012.24 1012.14 1012.04 1011.86 1012.11 1012.74 1013.13 1013.28 1013.94 1014.57 1015.26 1015.66 1016.22 1016.92 1017.60 1018.48 1018.83 1019.25 1019.64 1020.15 1020.24 1020.36 1020.51 1020.95 1021.25 1021.70 1021.95 1022.48 1023.05 1023.33 1023.37 1023.60 1023.86 1024.12 1024.50 1024.79 1025.10 1025.33 1025.44 1025.66 1025.85 1026.06 1026.15
1011.41 1012.09 1012.24 1012.66 1012.63 1012.74 1012.48 1012.64 1012.84 1011.69 1011.76 1012.56 1013.15 1013.24 1013.36 1013.87 1014.39 1014.85 1015.39 1015.94 1016.61 1017.58 1018.38 1018.88 1019.32 1019.77 1020.31 1020.44 1020.40 1020.64 1021.07 1021.49 1021.68 1022.06 1022.62 1023.05 1023.21 1023.48 1023.73 1024.14 1024.54 1024.92 1025.13 1025.23 1025.33 1025.55 1025.79 1026.02 1026.29
1012.19 1012.26 1012.58 1012.77 1013.03 1013.12 1012.88 1012.73 1012.36 1011.77 1012.27 1012.15 1012.71 1012.95 1012.98 1013.09 1013.55 1013.84 1014.49 1015.16 1015.68 1016.38 1017.30 1018.11 1018.88 1019.40 1019.96 1020.43 1020.47 1020.48 1020.80 1021.19 1021.55 1021.78 1022.22 1022.71 1022.97 1023.29 1023.63 1024.09 1024.37 1024.67 1024.95 1025.27 1025.42 1025.65 1025.76 1026.00 1026.24
1012.18 1012.21 1012.25 1012.62 1013.19 1013.39 1013.33 1011.73 1011.25 1011.66 1012.13 1011.86 1011.89 1012.08 1012.62 1012.75 1013.10 1013.25 1013.69 1014.41 1014.99 1015.63 1016.41 1017.34 1017.96 1018.91 1019.32 1019.90 1020.39 1020.45 1020.47 1020.83 1021.21 1021.71 1021.91 1022.38 1022.75 1023.01 1023.47 1023.86 1024.26 1024.54 1024.85 1025.15 1025.33 1025.66 1025.94 1025.96 1026.06
1012.37 1011.46 1011.83 1012.82 1013.09 1013.28 1013.19 1011.75 1010.88 1011.84 1012.08 1011.59 1011.49 1011.54 1011.97 1012.28 1012.67 1012.87 1013.22 1013.67 1014.37 1014.90 1015.58 1016.37 1017.27 1018.12 1018.92 1019.35 1019.93 1020.37 1020.40 1020.59 1020.97 1021.29 1021.70 1022.14 1022.60 1022.83 1023.15 1023.38 1023.72 1024.30 1024.75 1024.87 1024.98 1025.30 1025.45 1025.87 1026.16
1011.43 1011.46 1011.89 1012.40 1013.39 1013.55 1013.10 1012.16 1011.65 1011.83 1011.85 1011.36 1011.20 1011.20 1011.51 1011.59 1011.76 1012.25 1012.76 1013.15 1013.65 1014.44 1014.96 1015.60 1016.47 1017.30 1017.91 1018.78 1019.33 1019.96 1020.41 1020.49 1020.41 1020.70 1021.02 1021.57 1022.09 1022.62 1022.97 1023.50 1023.97 1024.22 1024.71 1024.82 1025.02 1025.33 1025.73 1025.83 1026.08
1010.79 1011.41 1011.66 1012.71 1013.88 1013.68 1012.67 1012.04 1011.49 1011.13 1011.30 1011.38 1010.98 1010.85 1010.87 1010.84 1011.22 1011.60 1012.24 1012.88 1013.44 1014.11 1014.49 1015.00 1015.51 1016.36 1017.10 1018.01 1018.62 1019.05 1019.56 1020.28 1020.56 1020.35 1020.51 1020.89 1021.44 1022.02 1022.56 1022.94 1023.78 1024.21 1024.50 1024.62 1025.21 1025.68 1025.93 1026.14 1026.12
1011.74 1011.84 1012.18 1013.50 1013.91 1013.77 1012.71 1012.01 1011.55 1011.02 1010.79 1010.88 1010.53 1010.15 1010.12 1010.45 1010.67 1011.25 1012.13 1012.80 1013.23 1013.55 1014.04 1014.55 1014.89 1015.46 1016.29 1017.13 1017.89 1018.37 1018.76 1019.43 1019.81 1020.06 1020.43 1020.47 1020.83 1021.29 1021.82 1022.27 1023.12 1023.68 1024.03 1024.29 1024.81 1025.21 1025.50 1025.63 1025.86
1012.03 1012.07 1012.07 1012.98 1013.65 1013.71 1013.28 1011.51 1010.65 1010.13 1010.10 1010.00 1010.11 1009.97 1009.81 1009.95 1010.34 1010.91 1011.94 1012.60 1013.17 1013.51 1013.80 1014.11 1014.43 1014.81 1015.32 1016.40 1017.52 1018.09 1018.43 1018.87 1019.44 1019.53 1019.96 1020.20 1020.42 1020.72 1021.27 1021.93 1022.50 1022.80 1023.30 1023.62 1024.20 1024.79 1024.83 1025.25 1025.87
1012.28 1012.69 1012.61 1013.22 1013.40 1013.08 1013.15 1010.63 1009.23 1009.26 1009.43 1009.51 1009.59 1009.74 1009.92 1010.32 1010.94 1011.43 1012.11 1012.71 1013.14 1013.39 1013.89 1014.21 1014.39 1014.63 1014.85 1015.35 1016.59 1017.11 1017.43 1017.83 1018.17 1018.69 1019.26 1019.67 1020.05 1020.40 1021.03 1021.60 1021.79 1022.11 1022.67 1023.25 1023.48 1024.01 1024.65 1025.02 1025.77
1012.66 1012.82 1013.29 1013.57 1013.68 1013.32 1012.91 1012.05 1009.16 1008.95 1008.67 1008.51 1008.68 1009.24 1009.86 1010.79 1011.51 1012.05 1012.84 1013.50 1013.86 1014.02 1014.34 1014.63 1014.61 1014.55 1014.58 1014.87 1015.41 1016.25 1016.79 1017.10 1017.58 1018.25 1018.79 1019.24 1019.55 1019.90 1020.32 1020.70 1021.27 1021.55 1021.93 1022.44 1022.93 1023.60 1023.99 1024.50 1025.15
1013.64 1013.72 1014.11 1014.08 1013.74 1013.20 1012.31 1011.80 1008.48 1007.91 1008.10 1007.99 1008.61 1009.40 1010.49 1011.46 1012.27 1012.95 1013.49 1014.05 1014.36 1014.35 1014.67 1014.83 1014.69 1014.60 1014.67 1014.76 1014.90 1015.31 1016.09 1016.60 1017.12 1017.54 1018.16 1018.66 1019.23 1019.70 1020.07 1020.57 1020.83 1021.06 1021.59 1022.08 1022.43 1023.00 1023.65 1024.18 1024.66
1013.35 1013.51 1013.66 1013.87 1013.71 1012.79 1012.57 1011.74 1008.34 1007.68 1008.15 1008.70 1009.26 1010.08 1010.75 1011.66 1012.32 1012.95 1013.59 1014.07 1014.44 1014.51 1014.84 1014.81 1014.62 1014.61 1014.58 1014.79 1014.85 1015.03 1015.57 1016.10 1016.72 1017.13 1017.65 1018.33 1018.99 1019.55 1019.75 1020.02 1020.33 1020.64 1020.98 1021.45 1022.12 1022.69 1023.26 1023.56 1024.09
1012.64 1012.24 1011.85 1012.69 1013.22 1012.90 1013.18 1010.72 1008.28 1008.09 1008.20 1009.15 1009.81 1010.71 1011.29 1011.52 1012.30 1012.90 1013.72 1014.11 1014.61 1015.00 1015.27 1014.88 1014.66 1014.66 1014.57 1014.64 1014.80 1014.93 1015.55 1016.06 1016.41 1016.96 1017.55 1018.25 1018.69 1019.13 1019.38 1019.84 1020.14 1020.47 1020.77 1021.32 1021.74 1022.32 1022.79 1023.22 1023.59
1012.67 1011.86 1011.51 1012.65 1014.06 1013.25 1011.42 1009.66 1008.52 1008.16 1008.47 1008.97 1009.73 1010.70 1011.33 1011.83 1012.44 1013.00 1013.75 1014.32 1014.89 1015.06 1015.36 1015.42 1015.32 1015.29 1015.10 1015.00 1015.10 1015.23 1015.77 1016.35 1016.71 1017.15 1017.60 1018.17 1018.74 1019.27 1019.58 1019.97 1020.29 1020.49 1020.78 1021.05 1021.53 1021.92 1022.21 1022.78 1023.14
1011.64 1011.70 1012.32 1012.20 1012.47 1011.99 1009.75 1008.74 1007.20 1007.85 1007.94 1008.42 1009.44 1010.31 1011.17 1011.97 1012.75 1013.46 1013.99 1014.47 1015.02 1015.28 1015.40 1015.64 1015.84 1015.92 1016.02 1016.03 1016.09 1016.35 1016.62 1016.80 1017.08 1017.48 1017.98 1018.42 1018.99 1019.46 1019.76 1019.94 1020.39 1020.70 1020.99 1021.27 1021.53 1021.86 1022.31 1022.77 1023.00
1012.26 1011.33 1011.07 1011.17 1010.94 1010.11 1009.36 1007.71 1007.06 1006.72 1007.15 1007.87 1008.98 1010.12 1011.05 1012.20 1013.01 1013.72 1014.30 1014.87 1015.25 1015.48 1015.63 1015.89 1016.11 1016.35 1016.62 1016.79 1016.92 1017.02 1017.42 1017.62 1017.75 1017.94 1018.39 1018.80 1019.13 1019.34 1019.82 1020.25 1020.59 1020.98 1021.20 1021.39 1021.68 1021.82 1022.15 1022.59 1022.78
1011.04 1010.31 1010.15 1010.02 1009.98 1010.12 1009.69 1007.77 1007.50 1007.86 1007.91 1008.29 1009.06 1010.29 1011.19 1012.23 1013.09 1013.85 1014.47 1014.95 1015.31 1015.52 1015.83 1016.04 1016.26 1016.46 1016.75 1017.07 1017.37 1017.53 1017.71 1018.08 1018.17 1018.30 1018.68 1018.90 1019.21 1019.48 1019.81 1020.27 1020.67 1021.14 1021.35 1021.51 1021.69 1021.86 1022.17 1022.45 1022.73
Wind_Speed
10 6 5 5 6 5 5 6 5 7 8 4 7 2 7 7 8 6 8 7 15 15 14 12 11 10 9 11 10 13 14 14 13 14 14 14 14 16 17 17 15 15 17 16 17 17 18 18 18
5 4 4 4 7 6 7 8 8 8 10 7 6 3 2 8 9 9 12 10 15 14 12 12 10 11 11 10 11 12 14 14 14 14 13 14 14 14 16 15 15 16 17 16 16 16 17 17 18
5 3 6 5 7 5 7 8 11 8 9 7 5 2 3 6 6 11 14 16 15 14 11 13 10 11 11 10 11 11 12 14 14 13 13 13 13 11 14 15 14 15 15 17 17 18 18 18 18
5 5 4 8 8 5 6 9 13 11 4 2 1 6 5 4 6 6 15 16 15 15 12 13 11 11 10 10 10 9 13 14 13 13 12 12 10 14 12 14 15 17 16 18 17 17 18 17 17
4 4 8 11 4 4 2 8 10 10 9 9 5 6 4 6 6 12 16 14 14 13 14 13 10 11 10 10 10 12 14 14 13 12 11 11 10 11 13 14 16 16 14 15 16 17 16 16 15
5 4 7 10 7 4 4 6 8 7 5 6 5 4 6 8 10 14 15 14 13 13 12 13 10 10 9 9 10 12 13 14 13 12 11 10 12 9 10 13 15 14 14 15 15 15 14 14 13
4 7 11 8 8 6 6 7 8 7 7 6 3 3 6 10 11 13 14 13 12 14 11 13 12 11 8 9 9 10 13 12 12 11 10 9 10 8 7 12 14 12 12 13 13 13 13 13 13
4 5 5 7 11 6 10 10 2 5 6 4 1 3 6 11 12 12 12 12 12 12 12 12 12 12 11 10 7 9 10 11 11 11 9 9 9 9 6 10 10 11 13 13 12 12 12 13 12
3 6 10 9 10 10 12 9 4 2 6 4 6 3 4 16 12 10 12 9 7 8 9 11 11 12 11 10 8 8 10 9 10 9 8 9 8 9 8 12 9 11 13 13 11 10 9 11 9
6 8 11 7 6 11 14 8 10 7 7 7 8 7 7 14 13 14 13 12 11 12 10 8 11 11 11 9 10 10 9 8 7 8 10 5 7 6 9 10 12 12 13 11 8 4 2 7 5
5 9 7 5 7 5 12 8 8 7 7 6 11 13 13 13 13 14 14 14 12 12 9 9 10 10 10 8 8 6 6 5 6 8 7 5 6 6 7 6 5 4 6 5 6 5 1 3 2
3 1 4 5 5 6 10 7 8 10 6 4 6 12 14 16 16 16 16 16 15 14 14 11 10 7 10 7 8 7 6 6 6 7 8 5 4 6 6 6 7 6 4 4 4 2 3 3 3
8 5 1 7 6 2 6 8 4 9 6 5 4 8 13 14 15 14 14 14 15 14 14 12 11 9 8 10 8 7 8 7 8 8 9 7 6 6 6 5 5 5 5 5 4 4 4 4 3
5 8 7 4 6 4 6 4 2 10 7 9 7 9 11 14 15 14 14 15 16 16 16 14 12 13 9 7 10 8 8 9 8 8 9 10 6 6 6 6 5 5 5 5 5 5 4 4 4
7 7 6 7 6 3 3 5 10 5 6 10 10 11 11 13 14 16 15 15 16 14 16 17 16 12 13 10 9 8 8 8 8 8 11 11 9 8 8 6 6 6 5 6 5 5 4 4 5
7 7 9 9 8 5 6 11 15 10 8 11 12 11 11 12 14 14 15 15 15 15 16 16 13 14 13 11 9 6 7 8 8 7 6 11 10 10 9 7 7 6 6 6 6 6 6 6 6
8 8 12 6 8 4 10 8 7 6 8 10 10 11 11 11 14 14 15 15 15 16 16 16 17 17 15 12 9 9 10 8 9 9 8 12 9 8 7 7 7 9 6 7 6 7 7 5 5
11 11 8 10 7 6 9 12 5 6 9 10 10 10 11 12 16 14 15 15 15 15 15 16 14 17 16 10 9 7 7 5 8 8 8 12 10 12 8 3 3 5 4 4 5 6 5 4 4
9 11 11 6 2 7 12 13 14 12 13 13 13 12 13 12 11 12 13 13 14 15 16 17 17 17 13 10 10 9 9 8 6 8 11 13 11 12 11 8 9 7 8 8 9 5 5 4 6
6 10 9 5 4 3 6 12 14 14 15 15 16 16 16 15 13 10 10 11 13 16 16 17 17 17 14 11 9 9 9 8 9 9 9 11 12 12 11 10 9 10 7 9 9 9 4 5 7
11 11 7 6 5 4 6 15 16 14 15 16 17 17 16 14 13 10 11 11 11 13 13 14 15 16 15 15 8 7 5 4 8 9 9 11 12 12 11 10 9 10 8 8 9 10 10 5 3
14 11 9 5 3 7 2 8 5 8 12 11 14 15 15 14 9 9 6 7 10 7 6 9 12 14 14 15 13 12 10 11 8 8 8 8 12 11 11 12 12 11 8 9 8 7 7 4 5
6 5 9 6 7 7 9 8 9 3 9 14 14 13 10 6 5 5 3 3 6 3 5 6 10 12 12 13 16 12 13 10 9 7 9 10 9 11 11 11 10 9 6 9 10 7 10 7 5
14 11 7 4 5 8 13 10 9 12 11 10 3 7 8 6 4 2 2 0 2 2 4 6 8 11 10 11 15 16 14 12 8 8 8 7 6 7 9 9 9 9 8 9 9 8 9 8 8
12 13 5 5 6 7 3 7 15 3 6 3 4 8 8 6 6 4 3 3 2 2 2 3 6 9 10 12 13 14 17 15 12 10 7 6 4 3 8 9 8 7 8 7 6 7 8 10 8
20 19 8 8 7 5 3 11 6 6 2 1 5 4 2 6 7 6 4 3 2 1 2 1 2 5 7 8 10 10 11 6 5 5 4 5 5 5 4 4 4 5 5 5 6 5 5 7 8
15 15 11 4 3 1 8 10 12 11 9 10 10 7 6 5 6 6 5 4 2 2 3 3 3 2 0 5 6 2 3 4 4 5 4 3 4 3 4 4 4 4 5 6 6 5 6 7 7
10 11 6 6 7 7 11 14 13 4 13 11 11 11 8 6 5 5 4 3 2 2 3 4 3 3 2 2 2 3 3 3 4 5 5 5 4 4 4 4 3 3 3 3 4 3 2 4 3
8 13 10 8 11 8 8 10 6 10 12 13 10 6 7 6 6 5 4 3 3 2 3 3 4 3 4 4 3 4 4 4 4 5 5 5 5 5 4 4 3 2 2 3 3 4 4 5 5
17 21 23 9 11 8 8 12 5 3 1 4 8 8 7 7 6 5 5 5 4 3 3 4 4 5 4 4 4 5 5 4 4 5 5 5 5 3 3 3 3 3 3 4 3 3 3 4 5
Wind_Direction
272 295 295 262 246 246 130 135 104 128 139 70 98 10 35 7 6 37 148 121 138 133 129 138 124 123 120 110 100 113 103 97 94 90 88 77 80 79 83 79 81 80 78 71 73 73 75 71 68
311 302 240 274 258 212 140 124 166 142 101 131 121 134 167 81 68 115 148 152 149 130 142 138 125 127 126 118 109 109 107 104 98 92 91 83 77 72 81 79 76 81 82 84 82 80 80 82 79
269 265 245 233 256 242 135 159 124 110 138 155 148 302 32 69 79 141 117 149 146 136 137 119 129 131 128 114 115 110 110 106 102 97 97 93 92 88 84 83 82 87 88 88 86 87 87 84 80
228 190 233 247 201 60 32 155 126 141 136 200 9 129 108 48 128 119 142 147 148 133 141 134 134 132 125 117 119 121 118 111 105 102 102 95 82 74 82 88 80 83 78 87 92 90 86 81 75
223 228 213 234 154 96 109 121 155 169 155 163 182 115 87 119 108 136 150 151 149 143 126 145 140 136 132 123 117 119 116 116 113 111 110 102 99 70 82 92 89 89 90 92 83 85 84 82 77
202 254 207 207 175 127 120 157 176 176 148 119 194 137 99 118 141 149 156 157 151 137 142 139 142 138 134 125 120 118 120 119 121 121 119 107 104 96 73 92 91 86 91 86 80 82 83 81 76
252 213 207 201 150 158 146 167 187 178 163 170 39 195 90 153 141 153 164 160 159 136 158 152 156 147 131 130 127 126 128 122 123 124 116 99 96 96 78 92 89 95 91 87 82 80 82 81 77
257 257 177 197 175 139 146 168 217 192 137 91 311 170 148 150 152 158 166 161 168 151 169 159 154 164 157 153 133 126 117 119 116 110 105 101 98 95 66 97 85 88 89 90 87 82 82 83 78
291 226 193 182 180 141 153 172 169 65 146 185 159 28 49 128 137 156 172 155 146 186 170 174 163 171 163 159 140 121 109 111 114 118 127 155 134 136 152 75 90 77 80 77 78 88 90 92 71
226 228 190 156 156 158 165 196 163 185 164 180 168 119 140 141 158 168 181 178 162 191 177 182 176 177 166 162 158 161 148 161 164 160 168 168 148 136 110 92 75 74 80 77 79 109 170 226 124
179 219 123 147 117 153 161 183 175 209 194 188 193 165 161 159 177 183 189 195 188 190 187 184 182 184 174 170 173 169 169 170 163 167 181 163 149 144 149 136 130 132 139 145 161 177 191 71 70
176 258 155 144 136 136 169 183 196 218 82 37 129 148 168 177 191 192 194 195 194 195 193 182 191 190 185 175 187 175 180 177 176 178 176 173 168 176 159 165 153 170 184 143 163 131 120 108 91
232 136 158 130 141 155 138 187 218 213 162 120 125 164 178 192 196 199 203 205 190 201 198 192 189 189 194 192 189 188 190 188 185 177 181 186 184 182 175 171 163 171 158 174 168 154 158 147 142
137 176 136 146 142 133 186 169 253 213 170 195 195 196 200 202 203 201 205 203 202 197 200 197 192 196 194 200 200 195 196 193 187 183 184 198 190 185 180 173 177 173 183 175 173 171 171 169 165
162 144 165 172 173 132 208 204 224 200 168 201 213 231 221 214 209 210 205 211 204 205 195 197 194 192 200 197 218 202 203 196 196 193 187 192 197 190 184 180 181 182 184 179 177 179 183 182 194
182 205 193 162 181 146 208 235 213 207 208 229 229 220 220 223 224 216 214 208 211 204 206 199 188 195 196 197 205 220 205 201 200 203 186 191 198 193 192 185 190 183 180 186 187 186 196 201 200
205 211 215 164 210 154 211 246 203 163 224 235 241 239 232 230 225 222 217 214 210 207 203 203 199 194 198 199 200 207 217 202 205 200 198 198 197 199 193 195 192 181 190 198 197 202 210 208 215
196 219 206 207 179 220 207 245 203 193 230 234 237 236 235 233 232 219 218 214 213 214 212 206 205 206 200 193 199 200 203 220 213 207 203 200 198 200 197 173 138 153 187 199 207 203 212 215 217
243 214 205 199 125 222 229 245 253 246 219 250 247 243 246 240 234 220 213 211 212 214 212 217 208 207 202 196 196 194 194 196 215 218 210 207 202 198 202 199 194 186 198 201 206 189 193 208 221
195 214 214 121 149 248 251 258 259 256 247 240 247 245 236 240 236 205 202 204 210 212 217 217 219 212 206 203 203 209 200 203 206 206 216 219 210 203 204 203 198 194 205 202 195 193 180 227 197
223 229 207 277 159 225 281 266 240 241 245 238 237 251 257 245 230 220 193 210 209 215 220 218 223 220 214 201 201 205 197 185 202 205 204 210 218 212 206 205 203 198 200 212 202 210 203 193 188
220 224 246 179 235 260 260 281 203 213 231 224 237 240 245 243 238 248 248 231 238 239 220 230 228 230 221 196 194 202 203 214 209 203 204 199 209 206 197 206 215 206 201 215 210 208 212 166 190
220 163 212 216 243 303 219 268 253 108 254 247 232 231 220 244 230 212 213 251 267 293 257 239 242 231 227 218 197 201 214 219 218 193 188 195 201 205 211 211 210 214 198 211 212 191 201 206 171
132 125 132 180 233 250 242 228 252 234 225 245 203 178 163 172 177 161 123 81 238 219 242 235 232 235 225 224 223 208 210 217 211 193 190 189 191 200 207 205 208 209 205 206 206 198 197 194 207
180 170 181 217 206 245 16 218 255 263 216 232 214 172 165 161 163 142 134 112 41 45 284 245 214 225 220 221 224 220 227 224 220 210 195 175 140 171 203 199 203 207 210 201 179 175 193 201 208
195 190 190 199 206 207 134 233 244 237 293 180 200 221 245 176 163 159 135 102 77 61 4 1 186 213 216 218 222 223 223 234 207 177 159 169 185 190 167 185 174 185 177 174 175 188 198 195 211
198 221 240 98 55 239 207 245 272 225 230 221 216 208 227 198 180 163 149 146 132 87 81 47 48 51 306 210 223 233 72 108 133 135 127 131 114 129 151 167 176 173 168 171 174 190 188 191 202
213 171 175 218 191 230 241 237 250 180 223 214 217 217 221 184 178 174 163 138 116 81 72 109 93 87 82 75 52 59 73 86 105 111 120 124 112 123 137 139 153 155 155 173 185 166 169 197 204
179 194 220 225 226 220 249 245 292 246 211 222 207 177 185 183 184 173 159 150 147 129 106 106 116 97 71 63 74 91 78 76 93 101 107 119 126 139 141 139 127 153 168 151 179 186 187 209 207
234 215 205 202 211 238 267 256 111 82 137 234 176 170 157 164 167 166 170 167 155 139 130 107 105 108 112 111 100 98 102 107 104 110 110 116 126 122 129 140 164 181 205 217 210 215 208 216 228